FW9036 Weather Reports


time (UTC)temp
C
wind
direction
speed
KPH
gust
KPH
rain 1hr
cm
rain 24hr
cm
rain mn
cm
humidity
%
barometer
mb
20220927024108 25 90 0.0 3.2 0.00 0.00 0.00 79 1013.1
20220927023608 25 106 0.0 0.0 0.00 0.00 0.00 78 1013.2
20220927023106 25 83 0.0 0.0 0.00 0.00 0.00 78 1013.0
20220927022605 25 95 0.0 3.2 0.00 0.00 0.00 78 1013.3
20220927022104 26 270 0.0 0.0 0.00 0.00 0.00 77 1012.9
20220927021603 26 106 0.0 4.8 0.00 0.00 0.00 76 1013.0
20220927021102 26 90 0.0 1.6 0.00 0.00 0.00 76 1013.2
20220927020602 25 97 0.0 1.6 0.00 0.00 0.00 76 1013.1
20220927020101 26 99 0.0 4.8 0.00 0.00 0.00 75 1012.9
20220927015601 25 90 0.0 0.0 0.00 0.00 0.00 75 1012.7
20220927015100 25 90 0.0 0.0 0.00 0.00 0.00 76 1012.8
20220927014558 25 103 0.0 4.8 0.00 0.00 0.00 75 1012.9
20220927014058 25 90 0.0 0.0 0.00 0.00 0.00 76 1012.9
20220927013557 25 283 0.0 1.6 0.00 0.00 0.00 76 1012.9
20220927013056 26 90 0.0 0.0 0.00 0.00 0.00 76 1012.7
20220927012554 26 84 0.0 3.2 0.00 0.00 0.00 74 1012.4
20220927012054 26 103 0.0 3.2 0.00 0.00 0.00 73 1012.4
20220927011554 26 105 0.0 3.2 0.00 0.00 0.00 73 1012.3
20220927011055 26 81 0.0 3.2 0.00 0.00 0.00 73 1012.4
20220927010553 26 98 0.0 3.2 0.00 0.00 0.00 73 1012.4
20220927010053 26 103 0.0 1.6 0.00 0.00 0.00 72 1012.3
20220927005551 26 99 0.0 4.8 0.00 0.00 0.00 72 1012.1
20220927005049 26 140 0.0 4.8 0.00 0.00 0.00 72 1012.0
20220927004547 26 107 3.2 4.8 0.00 0.00 0.00 72 1011.8
20220927004047 26 105 1.6 4.8 0.00 0.00 0.00 72 1011.7
20220927003547 26 126 0.0 3.2 0.00 0.00 0.00 72 1011.6
20220927003045 26 135 3.2 4.8 0.00 0.00 0.00 72 1011.8
20220927002544 26 107 3.2 6.4 0.00 0.00 0.00 72 1011.7
20220927002044 27 83 0.0 4.8 0.00 0.00 0.00 71 1011.4
20220927001544 27 107 0.0 4.8 0.00 0.00 0.00 71 1011.4
20220927001044 27 162 0.0 3.2 0.00 0.00 0.00 71 1011.5
20220927000543 27 152 3.2 8.0 0.00 0.00 0.00 71 1011.5
20220927000043 27 165 1.6 3.2 0.00 0.00 0.00 71 1011.2
20220926235542 27 165 0.0 4.8 0.00 0.00 0.00 71 1011.3
20220926235041 27 114 0.0 3.2 0.00 0.00 0.00 70 1011.3
20220926234540 27 142 3.2 8.0 0.00 0.00 0.00 70 1011.3
20220926234039 27 151 3.2 3.2 0.00 0.00 0.00 70 1011.1
20220926233539 27 125 4.8 9.7 0.00 0.00 0.00 69 1011.3
20220926233038 27 126 0.0 8.0 0.00 0.00 0.00 69 1010.9
20220926232537 27 114 0.0 6.4 0.00 0.00 0.00 69 1010.9
20220926232037 28 115 3.2 4.8 0.00 0.00 0.00 69 1010.7
20220926231536 28 114 4.8 14.5 0.00 0.00 0.00 68 1010.9
20220926231036 28 128 4.8 11.3 0.00 0.00 0.00 68 1010.8
20220926230536 28 111 0.0 9.7 0.00 0.00 0.00 68 1011.0
20220926230036 28 126 8.0 8.0 0.00 0.00 0.00 68 1010.8
20220926225534 28 110 4.8 8.0 0.00 0.00 0.00 67 1010.6
20220926225032 28 109 4.8 8.0 0.00 0.00 0.00 67 1010.6
20220926224531 28 120 3.2 4.8 0.00 0.00 0.00 67 1010.7
20220926224031 28 132 3.2 4.8 0.00 0.00 0.00 66 1010.9
20220926223531 28 110 4.8 4.8 0.00 0.00 0.00 66 1010.6
20220926223029 28 110 4.8 6.4 0.00 0.00 0.00 65 1010.8
20220926222529 29 135 3.2 4.8 0.00 0.00 0.00 66 1010.5
20220926222027 29 151 1.6 11.3 0.00 0.00 0.00 65 1010.7
20220926221527 29 109 4.8 11.3 0.00 0.00 0.00 65 1010.5
20220926221026 30 135 4.8 6.4 0.00 0.00 0.00 65 1010.6
20220926220526 30 107 4.8 9.7 0.00 0.00 0.00 65 1010.4
20220926220024 30 143 0.0 4.8 0.00 0.00 0.00 64 1010.6
20220926215522 30 121 6.4 8.0 0.00 0.00 0.00 63 1010.4
20220926215020 30 112 4.8 11.3 0.00 0.00 0.00 63 1010.4
20220926214520 31 172 1.6 6.4 0.00 0.00 0.00 62 1010.3
20220926214019 31 222 4.8 4.8 0.00 0.00 0.00 56 1010.2
20220926213518 32 82 0.0 3.2 0.00 0.00 0.00 53 1010.4
20220926213018 32 0 3.2 3.2 0.00 0.00 0.00 53 1010.2
20220926212516 32 49 3.2 4.8 0.00 0.00 0.00 53 1010.2
20220926212016 32 45 3.2 4.8 0.00 0.00 0.00 52 1009.8
20220926211514 32 81 1.6 4.8 0.00 0.00 0.00 54 1010.0
20220926211014 32 54 0.0 3.2 0.00 0.00 0.00 53 1010.2
20220926210513 32 74 0.0 1.6 0.00 0.00 0.00 55 1010.4
20220926210012 31 90 0.0 1.6 0.00 0.00 0.00 56 1010.3
20220926205512 31 286 0.0 0.0 0.00 0.00 0.00 55 1010.1
20220926205012 31 270 0.0 0.0 0.00 0.00 0.00 56 1010.0
20220926204512 31 270 0.0 0.0 0.00 0.00 0.00 58 1009.9
20220926204011 31 320 0.0 3.2 0.00 0.00 0.00 54 1010.0
20220926203509 31 0 0.0 1.6 0.00 0.00 0.00 52 1009.8
20220926203009 31 26 3.2 6.4 0.00 0.00 0.00 52 1010.0
20220926202509 31 354 1.6 3.2 0.00 0.00 0.00 52 1009.9
20220926202009 31 75 0.0 3.2 0.00 0.00 0.00 52 1010.2
20220926201508 31 5 0.0 3.2 0.00 0.00 0.00 54 1010.3
20220926201008 31 33 3.2 6.4 0.00 0.00 0.00 53 1009.8
20220926200506 31 301 4.8 8.0 0.00 0.00 0.00 52 1010.2
20220926200004 31 313 8.0 9.7 0.00 0.00 0.00 53 1010.2
20220926195504 32 303 0.0 3.2 0.00 0.00 0.00 52 1010.4
20220926195003 31 0 0.0 3.2 0.00 0.00 0.00 53 1010.4
20220926194501 31 18 3.2 8.0 0.00 0.00 0.00 53 1010.3
20220926194001 32 320 0.0 4.8 0.00 0.00 0.00 53 1010.6
20220926193500 31 296 4.8 4.8 0.00 0.00 0.00 53 1010.7
20220926192959 31 340 1.6 4.8 0.00 0.00 0.00 55 1010.6
20220926192459 31 299 8.0 8.0 0.00 0.00 0.00 55 1010.7
20220926191957 31 286 0.0 3.2 0.00 0.00 0.00 55 1010.9
20220926191456 31 300 9.7 9.7 0.00 0.00 0.00 53 1010.8
20220926190956 31 330 4.8 11.3 0.00 0.00 0.00 51 1011.0
20220926190455 31 126 0.0 6.4 0.00 0.00 0.00 54 1011.0
20220926185954 31 330 3.2 9.7 0.00 0.00 0.00 53 1010.9
20220926185452 31 287 8.0 8.0 0.00 0.00 0.00 53 1011.0
20220926184952 31 297 3.2 6.4 0.00 0.00 0.00 54 1011.2
20220926184452 31 355 0.0 9.7 0.00 0.00 0.00 54 1011.2
20220926183950 31 291 11.3 11.3 0.00 0.00 0.00 53 1011.5
20220926183449 31 300 3.2 11.3 0.00 0.00 0.00 54 1011.4
20220926182949 32 288 0.0 4.8 0.00 0.00 0.00 53 1011.3
20220926182448 31 144 0.0 3.2 0.00 0.00 0.00 53 1011.4
20220926181946 31 175 3.2 3.2 0.00 0.00 0.00 54 1011.6
20220926181446 31 313 4.8 4.8 0.00 0.00 0.00 56 1011.6
20220926180945 31 90 3.2 6.4 0.00 0.00 0.00 55 1011.7
20220926180444 31 3 4.8 4.8 0.00 0.00 0.00 58 1011.6
20220926175943 31 320 9.7 9.7 0.00 0.00 0.00 56 1012.1
20220926175442 32 322 3.2 4.8 0.00 0.00 0.00 52 1011.9
20220926174941 32 77 0.0 4.8 0.00 0.00 0.00 49 1012.0
20220926174440 32 203 1.6 3.2 0.00 0.00 0.00 52 1012.1
20220926173940 31 25 6.4 8.0 0.00 0.00 0.00 53 1012.3
20220926173440 31 8 4.8 8.0 0.00 0.00 0.00 56 1012.4
20220926172939 31 204 3.2 4.8 0.00 0.00 0.00 57 1012.3
20220926172438 31 329 6.4 14.5 0.00 0.00 0.00 59 1012.3
20220926171937 31 345 0.0 6.4 0.00 0.00 0.00 60 1012.3
20220926171437 30 314 11.3 12.9 0.00 0.00 0.00 59 1012.4
20220926170937 30 355 3.2 11.3 0.00 0.00 0.00 60 1012.2
20220926170435 30 221 0.0 8.0 0.00 0.00 0.00 60 1012.5
20220926165935 30 281 3.2 6.4 0.00 0.00 0.00 61 1012.4
20220926165435 31 200 1.6 4.8 0.00 0.00 0.00 61 1012.4
20220926164934 30 345 0.0 6.4 0.00 0.00 0.00 62 1012.4
20220926164434 29 70 3.2 9.7 0.00 0.00 0.00 64 1012.4
20220926163932 30 298 8.0 12.9 0.00 0.00 0.00 63 1012.5
20220926163430 30 328 4.8 8.0 0.00 0.00 0.00 63 1012.7
20220926162930 30 18 3.2 8.0 0.00 0.00 0.00 63 1012.6
20220926162429 29 30 6.4 9.7 0.00 0.00 0.00 64 1012.7
20220926161928 30 293 11.3 11.3 0.00 0.00 0.00 64 1013.0
20220926161428 29 5 3.2 11.3 0.00 0.00 0.00 64 1013.0
20220926160927 30 337 3.2 6.4 0.00 0.00 0.00 65 1013.1
20220926160426 29 30 8.0 8.0 0.00 0.00 0.00 64 1013.2
20220926155925 28 289 4.8 11.3 0.00 0.00 0.00 66 1013.1
20220926155425 29 319 3.2 8.0 0.00 0.00 0.00 66 1013.2
20220926154923 29 99 0.0 4.8 0.00 0.00 0.00 69 1013.2
20220926154421 28 270 1.6 9.7 0.00 0.00 0.00 70 1013.5
20220926153919 29 301 3.2 6.4 0.00 0.00 0.00 67 1013.5
20220926153419 28 353 0.0 6.4 0.00 0.00 0.00 69 1013.5
20220926152917 28 343 6.4 8.0 0.00 0.00 0.00 68 1013.4
20220926152416 28 279 0.0 8.0 0.00 0.00 0.00 69 1013.6
20220926151916 28 312 3.2 4.8 0.00 0.00 0.00 70 1013.4
20220926151412 27 305 6.4 6.4 0.00 0.00 0.00 70 1013.5
20220926150912 28 281 3.2 6.4 0.00 0.00 0.00 70 1013.6
20220926150411 28 328 4.8 11.3 0.00 0.00 0.00 69 1013.5
20220926145910 28 326 0.0 9.7 0.00 0.00 0.00 70 1013.4
20220926145410 28 313 4.8 6.4 0.00 0.00 0.00 72 1013.4
20220926144910 27 285 4.8 8.0 0.00 0.00 0.00 71 1013.9
20220926144409 27 348 6.4 6.4 0.00 0.00 0.00 73 1013.5
20220926143909 27 352 1.6 8.0 0.00 0.00 0.00 73 1013.8
20220926143408 27 309 4.8 8.0 0.00 0.00 0.00 74 1013.7
20220926142907 27 345 3.2 11.3 0.00 0.00 0.00 74 1013.8
20220926142407 27 14 0.0 4.8 0.00 0.00 0.00 76 1013.5
20220926141907 27 345 1.6 8.0 0.00 0.00 0.00 76 1013.5
20220926141406 26 293 3.2 8.0 0.00 0.00 0.00 78 1013.5
20220926140905 26 237 0.0 3.2 0.00 0.00 0.00 79 1013.6
20220926140404 26 334 1.6 6.4 0.00 0.00 0.00 79 1013.6
20220926135904 26 315 3.2 6.4 0.00 0.00 0.00 80 1013.6
20220926135403 26 180 3.2 4.8 0.00 0.00 0.00 81 1013.7
20220926134902 26 334 1.6 8.0 0.00 0.00 0.00 82 1013.9
20220926134401 25 270 0.0 6.4 0.00 0.00 0.00 83 1013.7
20220926133901 25 270 0.0 3.2 0.00 0.00 0.00 83 1013.6
20220926133402 25 346 1.6 4.8 0.00 0.00 0.00 84 1013.7
20220926132900 25 24 3.2 3.2 0.00 0.00 0.00 84 1013.6
20220926132359 25 198 1.6 3.2 0.00 0.00 0.00 85 1013.9
20220926131858 24 289 0.0 3.2 0.00 0.00 0.00 86 1013.7
20220926131357 24 283 0.0 1.6 0.00 0.00 0.00 86 1013.8
20220926130855 23 301 6.4 6.4 0.00 0.00 0.00 86 1013.7
20220926130355 23 187 0.0 3.2 0.00 0.00 0.00 87 1013.7
20220926125853 23 289 4.8 6.4 0.00 0.00 0.00 87 1013.8
20220926125351 23 286 0.0 4.8 0.00 0.00 0.00 87 1013.8
20220926124851 23 289 3.2 4.8 0.00 0.00 0.00 88 1013.7
20220926124350 23 287 3.2 4.8 0.00 0.00 0.00 90 1013.9
20220926123850 22 300 1.6 4.8 0.00 0.00 0.00 94 1013.8
20220926123348 21 297 0.0 3.2 0.00 0.00 0.00 96 1013.7
20220926122848 21 300 0.0 0.0 0.00 0.00 0.00 96 1013.6
20220926122347 21 270 0.0 0.0 0.00 0.00 0.00 96 1013.7
20220926121846 21 270 0.0 0.0 0.00 0.00 0.00 96 1013.7
20220926121345 21 270 0.0 1.6 0.00 0.00 0.00 96 1013.7
20220926120844 20 278 0.0 0.0 0.00 0.00 0.00 96 1013.8
20220926120343 20 278 0.0 0.0 0.00 0.00 0.00 97 1013.8
20220926115843 20 278 0.0 0.0 0.00 0.00 0.00 96 1013.5
20220926115342 20 278 0.0 0.0 0.00 0.00 0.00 96 1013.6
20220926114842 20 278 0.0 0.0 0.00 0.00 0.00 97 1013.4
20220926114340 20 278 0.0 0.0 0.00 0.00 0.00 96 1013.3
20220926113839 20 278 0.0 0.0 0.00 0.00 0.00 96 1013.4
20220926113339 20 278 0.0 0.0 0.00 0.00 0.00 96 1013.3
20220926112837 20 278 0.0 0.0 0.00 0.00 0.00 96 1013.2
20220926112337 20 278 0.0 0.0 0.00 0.00 0.00 96 1013.4
20220926111836 20 278 0.0 0.0 0.00 0.00 0.00 96 1013.4
20220926111334 20 279 0.0 0.0 0.00 0.00 0.00 96 1013.2
20220926110834 20 279 0.0 0.0 0.00 0.00 0.00 96 1013.1
20220926110334 20 279 0.0 0.0 0.00 0.00 0.00 96 1013.2
20220926105833 20 279 0.0 0.0 0.00 0.00 0.00 96 1013.2
20220926105331 20 279 0.0 0.0 0.00 0.00 0.00 96 1013.0
20220926104830 20 279 0.0 0.0 0.00 0.00 0.00 96 1013.2
20220926104329 20 270 0.0 0.0 0.00 0.00 0.00 96 1013.2
20220926103829 20 270 0.0 0.0 0.00 0.00 0.00 96 1012.9
20220926103329 20 270 0.0 0.0 0.00 0.00 0.00 96 1013.0
20220926102828 20 346 0.0 0.0 0.00 0.00 0.00 96 1013.1
20220926102328 20 346 0.0 0.0 0.00 0.00 0.00 96 1012.8
20220926101826 20 346 0.0 0.0 0.00 0.00 0.00 96 1012.7
20220926101325 20 346 0.0 0.0 0.00 0.00 0.00 96 1012.8
20220926100824 20 346 0.0 0.0 0.00 0.00 0.00 96 1012.9
20220926100322 20 346 0.0 0.0 0.00 0.00 0.00 96 1012.7
20220926095820 20 346 0.0 0.0 0.00 0.00 0.00 96 1012.7
20220926095320 20 346 0.0 0.0 0.00 0.00 0.00 96 1012.6
20220926094820 20 346 0.0 0.0 0.00 0.00 0.00 95 1012.5
20220926094320 20 346 0.0 0.0 0.00 0.00 0.00 95 1012.7
20220926093820 20 346 0.0 0.0 0.00 0.00 0.00 95 1012.5
20220926093319 20 346 0.0 0.0 0.00 0.00 0.00 95 1012.4
20220926092819 21 346 0.0 0.0 0.00 0.00 0.00 95 1012.5
20220926092317 20 346 0.0 0.0 0.00 0.00 0.00 95 1012.4
20220926091816 20 346 0.0 0.0 0.00 0.00 0.00 95 1012.4
20220926091315 20 346 0.0 0.0 0.00 0.00 0.00 95 1012.3
20220926090813 20 346 0.0 0.0 0.00 0.00 0.00 94 1012.3
20220926090313 20 346 0.0 0.0 0.00 0.00 0.00 94 1012.2
20220926085811 20 346 0.0 0.0 0.00 0.00 0.00 94 1012.1
20220926085310 20 346 0.0 0.0 0.00 0.00 0.00 94 1012.3
20220926084808 20 346 0.0 1.6 0.00 0.00 0.00 94 1012.3
20220926084307 20 7 0.0 0.0 0.00 0.00 0.00 94 1012.3
20220926083806 20 66 0.0 0.0 0.00 0.00 0.00 94 1012.4
20220926083305 20 66 0.0 0.0 0.00 0.00 0.00 94 1012.2
20220926082804 20 66 0.0 0.0 0.00 0.00 0.00 93 1012.1
20220926082305 20 66 0.0 0.0 0.00 0.00 0.00 93 1012.2
20220926081802 20 66 0.0 0.0 0.00 0.00 0.00 93 1012.0
20220926081300 20 66 0.0 0.0 0.00 0.00 0.00 93 1012.2
20220926080800 20 66 0.0 0.0 0.00 0.00 0.00 93 1012.1
20220926080259 20 66 0.0 0.0 0.00 0.00 0.00 93 1012.3
20220926075759 20 66 0.0 0.0 0.00 0.00 0.00 93 1012.4
20220926075257 20 66 0.0 0.0 0.00 0.00 0.00 92 1012.3
20220926074756 20 66 0.0 0.0 0.00 0.00 0.00 92 1012.2
20220926074255 20 66 0.0 0.0 0.00 0.00 0.00 92 1012.2
20220926073755 21 66 0.0 0.0 0.00 0.00 0.00 92 1012.3
20220926073253 21 66 0.0 0.0 0.00 0.00 0.00 92 1012.2
20220926072752 21 66 0.0 0.0 0.00 0.00 0.00 92 1012.3
20220926072251 21 66 0.0 0.0 0.00 0.00 0.00 92 1012.3
20220926071749 21 66 0.0 0.0 0.00 0.00 0.00 92 1012.1
20220926071248 21 66 0.0 0.0 0.00 0.00 0.00 92 1012.3
20220926070746 21 66 0.0 0.0 0.00 0.00 0.00 92 1012.3
20220926070246 21 66 0.0 0.0 0.00 0.00 0.00 91 1012.5
20220926065746 21 354 0.0 0.0 0.00 0.00 0.00 92 1012.4
20220926065244 21 354 0.0 0.0 0.00 0.00 0.00 92 1012.3
20220926064742 21 354 0.0 0.0 0.00 0.00 0.00 91 1012.3
20220926064242 21 0 0.0 0.0 0.00 0.00 0.00 91 1012.5
20220926063740 21 0 0.0 0.0 0.00 0.00 0.00 91 1012.4
20220926063240 21 0 0.0 0.0 0.00 0.00 0.00 91 1012.9
20220926062740 21 0 0.0 0.0 0.00 0.00 0.00 91 1012.6
20220926062239 21 0 0.0 0.0 0.00 0.00 0.00 91 1012.9
20220926061738 21 0 0.0 0.0 0.00 0.00 0.00 91 1012.8
20220926061236 21 0 0.0 0.0 0.00 0.00 0.00 91 1012.7
20220926060736 21 0 0.0 0.0 0.00 0.00 0.00 90 1012.9
20220926060235 21 0 0.0 0.0 0.00 0.00 0.00 90 1013.0
20220926055734 21 0 0.0 0.0 0.00 0.00 0.00 90 1013.2
20220926055232 21 0 0.0 0.0 0.00 0.00 0.00 91 1013.0
20220926054732 21 0 0.0 0.0 0.00 0.00 0.00 91 1013.1
20220926054230 21 0 0.0 0.0 0.00 0.00 0.00 90 1013.1
20220926053730 21 0 0.0 0.0 0.00 0.00 0.00 90 1013.4
20220926053228 21 0 0.0 0.0 0.00 0.00 0.00 90 1013.5
20220926052728 21 0 0.0 1.6 0.00 0.00 0.00 90 1013.5
20220926052226 21 99 0.0 0.0 0.00 0.00 0.00 90 1013.3
20220926051725 21 99 0.0 0.0 0.00 0.00 0.00 90 1013.6
20220926051224 21 99 0.0 0.0 0.00 0.00 0.00 90 1013.6
20220926050722 21 99 0.0 0.0 0.00 0.00 0.00 89 1013.4
20220926050221 21 99 0.0 0.0 0.00 0.00 0.00 89 1013.7
20220926045719 21 99 0.0 0.0 0.00 0.00 0.00 89 1013.6
20220926045219 21 99 0.0 0.0 0.00 0.00 0.00 89 1013.7
20220926044719 21 99 0.0 0.0 0.00 0.00 0.00 89 1013.6
20220926044219 21 99 0.0 0.0 0.00 0.00 0.00 89 1013.8
20220926043719 21 99 0.0 0.0 0.00 0.00 0.00 89 1013.9
20220926043219 21 99 0.0 0.0 0.00 0.00 0.00 89 1013.9
20220926042719 21 99 0.0 0.0 0.00 0.00 0.00 89 1013.6
20220926042217 21 99 0.0 0.0 0.00 0.00 0.00 89 1013.6
20220926041715 21 99 0.0 0.0 0.00 0.00 0.00 88 1013.7
20220926041216 21 99 0.0 0.0 0.00 0.00 0.00 88 1013.7
20220926040715 21 99 0.0 0.0 0.00 0.00 0.00 88 1013.8
20220926040213 21 99 0.0 0.0 0.00 0.00 0.00 88 1013.8
20220926035713 21 99 0.0 0.0 0.00 0.00 0.00 88 1013.6
20220926035213 21 99 0.0 0.0 0.00 0.00 0.00 88 1013.8
20220926034713 22 99 0.0 0.0 0.00 0.00 0.00 87 1013.8
20220926034213 22 99 0.0 0.0 0.00 0.00 0.00 87 1014.0
20220926033712 22 99 0.0 0.0 0.00 0.00 0.00 87 1013.8
20220926033211 22 99 0.0 0.0 0.00 0.00 0.00 86 1013.8
20220926032710 22 99 0.0 0.0 0.00 0.00 0.00 86 1013.8
20220926032209 22 99 0.0 0.0 0.00 0.00 0.00 86 1013.8
20220926031708 22 99 0.0 0.0 0.00 0.00 0.00 86 1013.8
20220926031208 22 99 0.0 0.0 0.00 0.00 0.00 86 1013.7
20220926030708 22 99 0.0 0.0 0.00 0.00 0.00 86 1013.9
20220926030207 22 99 0.0 0.0 0.00 0.00 0.00 86 1013.7
20220926025707 22 99 0.0 0.0 0.00 0.00 0.00 86 1013.7
20220926025207 22 99 0.0 0.0 0.00 0.00 0.00 85 1013.6
20220926024705 22 99 0.0 0.0 0.00 0.00 0.00 85 1013.8